Location: North Evanston
(42.0634°N, 87.6976°W)
Time: 20:44:16
(UTC+00:00)

Vanguard 2 Rocket - Pass Details

Date: 10 May 2026
Orbit: 553 x 3286 km, 32.9° (Epoch: 6 June)

Event Time Altitude Azimuth Distance (km) Brightness Sun altitude
Rises 20:45:37 0° 264° (W) 6,710 12.0 45.1°
Reaches altitude 10° 20:49:48 10° 262° (W) 5,910 12.1 44.3°
Maximum altitude 21:08:57 63° 188° (S) 3,502 10.7 40.9°
Drops below altitude 10° 21:26:14 10° 113° (ESE) 5,399 10.5 37.8°
Sets 21:29:52 0° 110° (ESE) 6,128 10.7 37.1°
